Other Public Products
Issued by NWS Grand Forks, ND

Home | Current Version | Previous Version | Text Only | Print | Product List | Glossary Off
Versions: 1 2 3 4 5 6 7 8 9 10 11 12 13 14 15 16 17 18 19 20 21 22 23 24 25 26 27 28 29 30 31 32 33 34 35 36 37 38 39 40 41 42 43 44 45 46 47 48 49 50

000
FPUS83 KFGF 232110
OPUFGF
PRAIRIE TO PINES WEATHER ROUNDUP
NATIONAL WEATHER SERVICE EASTERN NORTH DAKOTA/GRAND FORKS ND
400 PM CDT WED JUL 23 2014

 **SATELLITE DATA USED TO AUGMENT SKY COVER AT AUTOMATED STATIONS**
 *****  WEATHER ACROSS EASTERN NORTH DAKOTA  *****

CITY           SKY/WX    TMP DP  RH WIND       PRES   REMARKS
GRAND FORKS    MOSUNNY   74  56  53 NW3       30.26F
GRAND FORKS AF SUNNY     74  58  58 VRB6      30.27F
GRAND CITY NWS   N/A     61 N/A N/A N7          N/A
BUXTON         NOT AVBL
DEVILS LAKE    PTSUNNY   72  55  56 SE7       30.26F
FARGO          PTSUNNY   78  58  49 N5        30.25F
WAHPETON ARPT  CLOUDY    79  52  38 NE5       30.25F
$$

 *****  WEATHER ACROSS CENTRAL AND WESTERN NORTH DAKOTA  *****

CITY           SKY/WX    TMP DP  RH WIND       PRES   REMARKS
JAMESTOWN      MOSUNNY   79  57  46 SE8       30.24F
BISMARCK       MOSUNNY   83  61  47 SE14G28   30.20F
MINOT          MOSUNNY   76  66  71 E15       30.20F
MINOT AFB      PTSUNNY   75  67  76 E16G23    30.20F
GARRISON         N/A     79  66  64 SE12G21   30.19F
WILLISTON      PTSUNNY   87  60  40 E16G30    30.10F
DICKINSON      SUNNY     83  63  50 SE18G28   30.13F
HETTINGER      PTSUNNY   81  61  50 SE18      30.16F
$$

 *****  OTHER OBSERVATIONS NORTHEAST NORTH DAKOTA  *****

CITY           SKY/WX    TMP DP  RH WIND       PRES   REMARKS
WALHALLA       FAIR      72  52  49 NE3         N/A
LANGDON        FAIR      72  55  56 E6        30.29F
CAVALIER       FAIR      72  52  49 NE6       30.28S
GRAFTON        FAIR      72  55  56 NE5       30.27F
CANDO          MOCLDY    72  57  60 SE8       30.28F
FORT TOTTEN      N/A     75  62  62 E3        29.95
ROLLA            N/A     70  57  64 SE9       30.29F
RUGBY          CLOUDY    70  61  73 E10       30.25F
 ***** THE ABOVE OBSERVATIONS ARE NON NWS ARE NOT QUALITY
        CONTROLLED AND MAY MIS-REPORT RAIN FOR SNOW...
$$

 *****  OTHER OBSERVATIONS SOUTHEAST NORTH DAKOTA *****

CITY           SKY/WX    TMP DP  RH WIND       PRES   REMARKS
COOPERSTOWN    NOT AVBL
VALLEY CITY    MOCLDY    75  57  53 E8        30.26F
OAKES          NOT AVBL
GWINNER        CLEAR     79  57  47 SE7       30.27F
SHEYENNE NWR     N/A     79  60  51 CALM      29.95
BUFFALO        NOT AVBL
WYNDMERE       NOT AVBL
 ***** THE ABOVE OBSERVATIONS ARE NON NWS ARE NOT QUALITY
       CONTROLLED AND MAY MIS-REPORT RAIN FOR SNOW...
$$

  *****  WEATHER ACROSS NORTHERN MINNESOTA  *****

CITY           SKY/WX    TMP DP  RH WIND       PRES   REMARKS
FLAG ISLAND    SUNNY     70  48  46 N9        30.26F
WARROAD        NOT AVBL
ROSEAU         SUNNY     73  57  56 NE3       30.26F
HALLOCK        SUNNY     73  52  46 NE5       30.26F
THF RVR FALLS  PTSUNNY   73  55  53 NW6       30.26F
HALSTAD          N/A     78  52  39 CALM        N/A
FOSSTON        MOSUNNY   73  57  56 N6        30.26F
BAUDETTE       SUNNY     73  52  47 N8        30.27F
WASKISH        PTSUNNY   75  55  50 CALM      30.24F
CROOKSTON      SUNNY     73  57  56 NW8       30.27F
$$
  *****  WEATHER ACROSS CENTRAL AND WEST MINNESOTA  *****

CITY           SKY/WX    TMP DP  RH WIND       PRES   REMARKS
BEMIDJI        MOSUNNY   75  53  47 NW9G17    30.25F
PARK RAPIDS    MOSUNNY   77  50  38 N9        30.25F
WADENA         MOSUNNY   75  57  53 N10       30.25F
DETROIT LAKES  MOSUNNY   75  57  53 N12       30.28S
MOORHEAD       SUNNY     75  61  60 CALM      30.26F
FERGUS FALLS   PTSUNNY   79  54  41 N5        30.24F
ELBOW LAKE     FAIR      74  57  55 N7        30.26S
MORRIS MN      MOSUNNY   77  57  50 NE5       30.25S
STAPLES        MOSUNNY   79  52  38 N7        30.24F
WHEATON        PTSUNNY   75  55  50 CALM      30.26F
$$
  *****  WEATHER ELSEWHERE ACROSS MINNESOTA  *****

CITY           SKY/WX    TMP DP  RH WIND       PRES   REMARKS
DULUTH         MOSUNNY   75  51  43 NE8       30.22F
INTRNTL FALLS  PTSUNNY   71  50  47 N5        30.25F
ELY            PTSUNNY   70  48  46 N6        30.24F
CLOQUET        MOSUNNY   73  50  43 NW5       30.23F
BRAINERD       SUNNY     75  49  39 N9        30.24F
HIBBING        PTSUNNY   76  51  41 N8        30.24F
ALEXANDRIA     PTSUNNY   77  54  44 N8        30.27F
SAINT CLOUD    SUNNY     81  47  30 N12       30.23F
MINNEAPOLIS    PTSUNNY   83  49  30 NW8       30.20F
$$

  *****  WEATHER ACROSS SOUTH DAKOTA  *****

CITY           SKY/WX    TMP DP  RH WIND       PRES   REMARKS
SIOUX FALLS    MOSUNNY   80  57  45 NE7       30.23F
BROOKINGS      NOT AVBL
WATERTOWN      PTSUNNY   80  53  39 S6        30.25F
HURON          SUNNY     81  55  40 E10       30.21F
SISSETON         N/A     77  56  48 VRB5      30.24F
ABERDEEN       SUNNY     80  56  43 SE9       30.23F
MITCHELL       SUNNY     83  58  42 VRB6      30.21F
PIERRE         MOSUNNY   86  55  34 SE17G24   30.16F
MOBRIDGE       SUNNY     82  59  45 SE15      30.17F
RAPID CITY     SUNNY     83  64  52 SE18      30.16F
$$

  *****  SOME WEATHER IN NEARBY STATES *****

CITY           SKY/WX    TMP DP  RH WIND       PRES   REMARKS
GLASGOW MT     SUNNY     90  57  32 E22G31    30.01F
GREAT FALLS MT MOSUNNY   90  48  23 VRB3      30.01F
CHEYENNE WY    SUNNY     81  59  47 S24G33    30.34F
SCOTTSBLUFF NE SUNNY     89  65  44 S18       30.19F HX  91
OMAHA NE       MOSUNNY   85  58  39 NE9       30.18F
DES MOINES IA  MOSUNNY   83  58  42 NE7       30.17S
DAVENPORT IA   MOSUNNY   78  57  48 NE10      30.16F
CHICAGO IL     MOSUNNY   72  49  44 NE16      30.14F
EAU CLAIRE WI  PTSUNNY   79  53  40 N3        30.18F
LA CROSSE WI   MOSUNNY   81  54  39 W8        30.18F
$$

  *****  SOME NATIONAL WEATHER *****

CITY           SKY/WX    TMP DP  RH WIND       PRES   REMARKS
LA GUARDIA NY  MOSUNNY   87  72  60 S14G22    29.79F HX  93
RALEIGH NC     MOSUNNY   92  71  50 SW12      29.94F HX  98
ATLANTA GA     MOSUNNY   87  69  54 SW7       30.01F HX  91
NEW ORLEANS LA PTSUNNY   82  73  74 SE10      30.00F
OKLAHOMA CITY  PTSUNNY   97  72  44 N6        30.08F HX 105
ALBUQUERQUE NM PTSUNNY   88  52  29 SW3       30.31F
SALT LAKE CITY MOSUNNY   99  35  10 S13G22    30.03F HX  93
LOS ANGELES CA MOSUNNY   78  57  48 W18       29.96F
BOISE ID       SUNNY     90  42  18 CALM      29.97F
SEATTLE WA     LGT RAIN  59  57  93 S10       30.05R
$$

*** WEATHER ACROSS MANITOBA...SASKATCHEWAN AND ONTARIO ***
                ***ONTARIO***

CITY           SKY/WX    TMP DP  RH WIND       PRES   REMARKS
GERALDTON      PTSUNNY   70  46  43 NW12      30.16F
THUNDER BAY    PTSUNNY   73  48  40 NW9       30.20F
SIOUX LOOKOUT  MOSUNNY   70  45  40 N5        30.25F
TORONTO        CLOUDY    68  55  64 NW20G26   29.97S
BIG TROUT LK   SUNNY     75  50  41 NW15G22   30.06F
PICKLE LAKE    PTSUNNY   73  46  38 NW7       30.17F
DRYDEN         MOSUNNY   70  45  40 NW6       30.26F
KENORA         NOT AVBL
$$
                *** MANITOBA***

CITY           SKY/WX    TMP DP  RH WIND       PRES   REMARKS
BRANDON        MOSUNNY   73  52  46 E7        30.28F
DAUPHIN        SUNNY     73  54  49 SE10      30.25F
ISLAND LAKE    MOSUNNY   77  48  36 W7        30.19F
PILOT MOUND      N/A     72  57  60 SE5         N/A
THE PAS        MOSUNNY   77  52  41 CALM      30.20F
THOMPSON       MOSUNNY   81  50  34 W9        30.14F
WINNIPEG       MOSUNNY   73  52  46 NE6       30.27F
LYNN LAKE      SUNNY     82  45  26 NW9G18    30.15F
CHURCHILL      MOSUNNY   63  48  59 E7        30.07F
GILLAM         PTSUNNY   77  54  44 W14       30.08F
$$
                ***SASKATCHEWAN***

CITY           SKY/WX    TMP DP  RH WIND       PRES   REMARKS
ESTEVAN        CLOUDY    73  64  73 E16       30.19F
KINDERSLEY     NOT AVBL
LLOYDMINSTER   CLOUDY    72  64  78 S10       30.04R
PRINCE ALBERT  PTSUNNY   77  57  50 S13       30.15F
REGINA         CLOUDY    81  59  47 SE20G26   30.15F


USA.gov is the U.S. government's official web portal to all federal, state and local government web resources and services.